Powrót do katalogu

SCOUT B DEB

AktywnyLEO
NORAD 29168·DEBRIS·🇺🇸 United States

Wystrzelony Aug 10, 1965 z Wallops Flight Facility

Loading…

Następne Przeloty (najbliższe 24 godziny)

TLE

ŚwieżeSource: Space-Track

Epoka: Sep 14, 2026, 11:45 UTC

1 29168U 65063S   26257.49003958  .00004498  00000-0  19607-1 0  9995
2 29168  69.3197  85.2361 0406555  45.7382 333.5054 12.58117315641471

Śledź SCOUT B DEB w czasie rzeczywistym z AllMySat

Download on the App Store